Detroit Metro, MI

8:36 AM EDT on May 22, 2018 (GMT -0400)
Detroit Metro Wayne County

Weather History for KDTW - November, 2014

Change the Weather History Date:

Thursday, November 6, 2014

  Actual Average Record
Temperature  
Mean Temperature 45 °F 45 °F  
Max Temperature 50 °F 53 °F 75 °F (1975)
Min Temperature 39 °F 37 °F 18 °F (1877)
Degree Days  
Heating Degree Days 20 20  
Month to date heating degree days 126 113  
Since 1 July heating degree days 638 624  
Cooling Degree Days 0 0  
Month to date cooling degree days 0 0  
Year to date cooling degree days 704 803  
Moisture  
Dew Point 41 °F    
Average Humidity 83    
Maximum Humidity 92    
Minimum Humidity 73    
Precipitation  
Precipitation 0.08 in 0.09 in 1.64 in (1880)
Month to date precipitation 0.12 0.54  
Year to date precipitation 34.61 28.76  
Snow  
Snow 0.00 in 0.00 in 5.60 in (1951)
Month to date snowfall 0.0 0.1  
Since 1 July snowfall T 0.2  
Since 1 September snowfall T 0.2  
Snow Depth 0.00 in    
Sea Level Pressure  
Sea Level Pressure 29.83 in    
Wind  
Wind Speed 7 mph (North)    
Max Wind Speed 24 mph    
Max Gust Speed 38 mph    
Visibility 8 miles    
Events Rain    
T = Trace of Precipitation, MM = Missing Value Source: NWS Daily Summary

Daily Weather History Graph

Daily Weather History Graph

Search for Another Location

Airport or City:

Astronomy

Nov. 06, 2014 Rise Set
Actual Time 7:12 AM EST 5:20 PM EST
Civil Twilight 6:43 AM EST 5:50 PM EST
Nautical Twilight 6:09 AM EST 6:23 PM EST
Astronomical Twilight 5:36 AM EST 6:56 PM EST
Moon 5:28 PM EST (11/6) 6:42 AM EST (11/6)
Length of Visible Light 11h 07m
Length of Day
10h 08m
Full, 100% of the Moon is Illuminated
Nov 6
Full
Nov 6
Full
Nov 14
Last Quarter
Nov 22
New
Nov 29
First Quarter

Hourly Weather History & Observations

Time (EST) Temp. Windchill Dew Point Humidity Pressure Visibility Wind Dir Wind Speed Gust Speed Precip Events Conditions
12:53 AM 44.1 °F 40.8 °F 37.9 °F 79% 29.97 in 10.0 mi SE 5.8 mph - N/A   Overcast
1:53 AM 45.0 °F 41.8 °F 37.0 °F 74% 29.95 in 10.0 mi SSE 5.8 mph - N/A   Overcast
2:53 AM 44.1 °F 42.5 °F 37.0 °F 76% 29.92 in 10.0 mi SE 3.5 mph - N/A   Overcast
3:53 AM 44.1 °F - 37.0 °F 76% 29.88 in 10.0 mi Calm Calm - N/A   Overcast
4:53 AM 43.0 °F 39.5 °F 37.0 °F 80% 29.86 in 10.0 mi East 5.8 mph - N/A   Overcast
5:53 AM 44.1 °F 40.8 °F 37.0 °F 76% 29.84 in 10.0 mi SSE 5.8 mph - N/A   Overcast
6:53 AM 45.0 °F 41.2 °F 39.0 °F 80% 29.82 in 10.0 mi ESE 6.9 mph - N/A   Overcast
7:53 AM 45.0 °F 41.8 °F 41.0 °F 86% 29.81 in 9.0 mi South 5.8 mph - N/A   Overcast
7:59 AM 44.6 °F 41.4 °F 41.0 °F 87% 29.80 in 9.0 mi SSE 5.8 mph - 0.00 in Rain Light Rain
8:44 AM 46.4 °F 45.2 °F 42.8 °F 87% 29.78 in 9.0 mi East 3.5 mph - 0.00 in   Overcast
8:53 AM 46.0 °F - 42.1 °F 86% 29.79 in 9.0 mi Calm Calm - 0.00 in   Overcast
9:46 AM 46.4 °F 42.9 °F 42.8 °F 87% 29.77 in 7.0 mi SE 6.9 mph - N/A   Overcast
9:53 AM 46.9 °F - 43.0 °F 86% 29.78 in 7.0 mi SSE 5.8 mph - N/A   Overcast
10:53 AM 46.9 °F - 43.0 °F 86% 29.77 in 7.0 mi SSE 5.8 mph - N/A   Overcast
11:53 AM 48.0 °F - 43.0 °F 83% 29.75 in 8.0 mi Calm Calm - N/A   Overcast
12:31 PM 48.2 °F - 42.8 °F 82% 29.73 in 7.0 mi Calm Calm - 0.00 in   Overcast
12:42 PM 50.0 °F - 42.8 °F 76% 29.73 in 7.0 mi Calm Calm - 0.00 in Rain Light Rain
12:53 PM 48.9 °F - 42.1 °F 77% 29.73 in 8.0 mi Calm Calm - 0.00 in Rain Light Rain
1:53 PM 48.2 °F - 42.8 °F 82% 29.72 in 9.0 mi Calm Calm - N/A Rain Light Rain
2:29 PM 48.2 °F - 42.8 °F 82% 29.73 in 2.0 mi NNW 3.5 mph - 0.01 in Rain Light Rain
2:47 PM 48.2 °F - 42.8 °F 82% 29.73 in 2.0 mi NNW 4.6 mph - 0.02 in Rain Light Rain
2:53 PM 48.0 °F - 43.0 °F 83% 29.74 in 2.0 mi NNW 4.6 mph - 0.02 in Rain Light Rain
3:15 PM 46.4 °F 43.5 °F 44.6 °F 93% 29.74 in 2.0 mi NNW 5.8 mph - 0.01 in Rain Light Rain
3:40 PM 46.4 °F 44.3 °F 44.6 °F 93% 29.75 in 2.0 mi NW 4.6 mph - 0.02 in Rain Light Rain
3:48 PM 46.4 °F 44.3 °F 44.6 °F 93% 29.75 in 4.0 mi NNW 4.6 mph - 0.02 in Rain Light Rain
3:53 PM 48.0 °F - 44.1 °F 86% 29.76 in 4.0 mi NNW 3.5 mph - 0.02 in Rain Light Rain
4:53 PM 46.9 °F - 43.0 °F 86% 29.79 in 10.0 mi NNW 5.8 mph - 0.01 in   Overcast
5:53 PM 46.9 °F - 44.1 °F 90% 29.82 in 8.0 mi NNW 6.9 mph - 0.01 in Rain Light Rain
6:53 PM 45.0 °F 40.1 °F 42.1 °F 90% 29.86 in 10.0 mi NNW 9.2 mph - 0.02 in Rain Light Rain
7:53 PM 46.0 °F 41.0 °F 42.1 °F 86% 29.90 in 10.0 mi NNW 10.4 mph - 0.00 in   Overcast
8:26 PM 44.6 °F 36.6 °F 39.2 °F 81% 29.91 in 10.0 mi NW 19.6 mph 24.2 mph 0.00 in Rain Light Rain
8:53 PM 44.1 °F 35.2 °F 39.0 °F 82% 29.93 in 10.0 mi NNW 23.0 mph 32.2 mph 0.00 in   Overcast
9:53 PM 42.1 °F 33.6 °F 37.0 °F 82% 29.97 in 10.0 mi NNW 18.4 mph 27.6 mph 0.00 in   Overcast
10:53 PM 41.0 °F 33.9 °F 34.0 °F 76% 29.99 in 10.0 mi NNW 12.7 mph 24.2 mph N/A   Overcast
11:53 PM 39.9 °F 31.1 °F 33.1 °F 77% 30.01 in 10.0 mi NW 17.3 mph 26.5 mph N/A   Overcast